WA4BPS Weather Reports


time (UTC)temp
C
wind
direction
speed
KPH
gust
KPH
rain 1hr
cm
rain 24hr
cm
rain mn
cm
humidity
%
barometer
mb
20260503205436 16 285 8.0 17.7 0.00 0.00 0.00 40 1015.3
20260503205335 16 326 4.8 17.7 0.00 0.00 0.00 40 1015.3
20260503205233 16 329 1.6 17.7 0.00 0.00 0.00 39 1015.3
20260503205136 16 328 9.7 17.7 0.00 0.00 0.00 40 1015.3
20260503205033 16 313 4.8 17.7 0.00 0.00 0.00 41 1015.3
20260503204932 16 316 8.0 17.7 0.00 0.00 0.00 41 1015.3
20260503204831 16 335 11.3 17.7 0.00 0.00 0.00 44 1015.3
20260503204743 16 311 6.4 12.9 0.00 0.00 0.00 44 1015.3
20260503204652 16 295 4.8 12.9 0.00 0.00 0.00 44 1015.3
20260503204551 16 336 3.2 12.9 0.00 0.00 0.00 43 1015.3
20260503204428 16 326 4.8 17.7 0.00 0.00 0.00 44 1015.3
20260503204351 16 332 11.3 27.4 0.00 0.00 0.00 43 1015.5
20260503204228 16 322 8.0 27.4 0.00 0.00 0.00 42 1015.5
20260503204127 16 330 1.6 27.4 0.00 0.00 0.00 42 1015.5
20260503204046 16 305 9.7 27.4 0.00 0.00 0.00 41 1015.5
20260503203943 16 329 4.8 27.4 0.00 0.00 0.00 42 1015.5
20260503203841 16 308 3.2 27.4 0.00 0.00 0.00 41 1015.5
20260503203740 16 287 6.4 27.4 0.00 0.00 0.00 41 1015.5
20260503203638 16 305 11.3 27.4 0.00 0.00 0.00 44 1015.5
20260503203540 16 305 14.5 27.4 0.00 0.00 0.00 43 1015.5
20260503203438 16 277 12.9 27.4 0.00 0.00 0.00 41 1015.5
20260503203339 16 318 8.0 25.7 0.00 0.00 0.00 41 1015.5
20260503203259 16 332 6.4 25.7 0.00 0.00 0.00 41 1015.5
20260503203229 16 323 6.4 25.7 0.00 0.00 0.00 43 1015.5
20260503203105 16 322 9.7 25.7 0.00 0.00 0.00 41 1015.5
20260503202942 16 311 8.0 25.7 0.00 0.00 0.00 44 1015.5
20260503202841 16 319 11.3 25.7 0.00 0.00 0.00 44 1015.9
20260503202802 16 296 6.4 25.7 0.00 0.00 0.00 42 1015.9
20260503202621 16 306 9.7 25.7 0.00 0.00 0.00 41 1015.9
20260503202543 16 309 6.4 25.7 0.00 0.00 0.00 43 1015.9
20260503202501 16 318 6.4 17.7 0.00 0.00 0.00 41 1015.9
20260503202337 16 299 4.8 17.7 0.00 0.00 0.00 41 1015.9
20260503202235 16 320 4.8 19.3 0.00 0.00 0.00 41 1015.9
20260503202134 16 335 11.3 19.3 0.00 0.00 0.00 41 1015.9
20260503202032 16 332 8.0 19.3 0.00 0.00 0.00 41 1015.9
20260503201935 16 318 12.9 19.3 0.00 0.00 0.00 44 1015.9
20260503201833 16 305 11.3 19.3 0.00 0.00 0.00 43 1015.9
20260503201752 16 302 9.7 19.3 0.00 0.00 0.00 44 1015.9
20260503201722 16 318 6.4 19.3 0.00 0.00 0.00 45 1015.9
20260503201542 16 322 4.8 19.3 0.00 0.00 0.00 46 1015.9
20260503201441 16 325 12.9 19.3 0.00 0.00 0.00 45 1015.9
20260503201400 16 330 11.3 19.3 0.00 0.00 0.00 44 1016.1
20260503201237 16 288 3.2 17.7 0.00 0.00 0.00 43 1016.1
20260503201138 16 312 1.6 24.1 0.00 0.00 0.00 42 1016.1
20260503201040 16 330 3.2 24.1 0.00 0.00 0.00 42 1016.1
20260503200938 16 318 0.0 24.1 0.00 0.00 0.00 43 1016.1
20260503200835 16 291 3.2 24.1 0.00 0.00 0.00 46 1016.1
20260503200733 16 322 4.8 24.1 0.00 0.00 0.00 46 1016.1
20260503200632 16 315 4.8 24.1 0.00 0.00 0.00 44 1016.1
20260503200531 16 315 1.6 24.1 0.00 0.00 0.00 47 1016.1
20260503200433 16 339 3.2 24.1 0.00 0.00 0.00 44 1016.1
20260503200331 16 326 11.3 24.1 0.00 0.00 0.00 46 1016.1
20260503200229 16 311 11.3 22.5 0.00 0.00 0.00 44 1016.1
20260503200159 16 318 4.8 17.7 0.00 0.00 0.00 44 1016.1
20260503200036 16 329 6.4 20.9 0.00 0.00 0.00 44 1016.1
20260503195934 16 318 4.8 20.9 0.00 0.00 0.00 43 1016.1
20260503195833 16 328 3.2 20.9 0.00 0.00 0.00 42 1016.3
20260503195754 16 323 4.8 20.9 0.00 0.00 0.00 41 1016.3
20260503195631 16 333 14.5 20.9 0.00 0.00 0.00 44 1016.3
20260503195549 16 325 9.7 20.9 0.00 0.00 0.00 44 1016.3
20260503195427 16 323 8.0 20.9 0.00 0.00 0.00 45 1016.3
20260503195326 16 302 6.4 20.9 0.00 0.00 0.00 45 1016.3
20260503195244 16 305 6.4 20.9 0.00 0.00 0.00 47 1016.3
20260503195142 16 313 6.4 20.9 0.00 0.00 0.00 47 1016.3
20260503195026 16 316 14.5 20.9 0.00 0.00 0.00 46 1016.3
20260503194943 16 299 14.5 20.9 0.00 0.00 0.00 48 1016.3
20260503194842 16 316 16.1 20.9 0.00 0.00 0.00 47 1016.3
20260503194741 16 308 11.3 19.3 0.00 0.00 0.00 46 1016.3
20260503194710 16 250 9.7 19.3 0.00 0.00 0.00 45 1016.3
20260503194528 16 308 6.4 17.7 0.00 0.00 0.00 45 1016.3
20260503194425 16 251 3.2 25.7 0.00 0.00 0.00 45 1016.3
20260503194325 16 251 6.4 25.7 0.00 0.00 0.00 46 1016.6
20260503194228 16 305 9.7 25.7 0.00 0.00 0.00 45 1016.6
20260503194126 16 330 1.6 25.7 0.00 0.00 0.00 43 1016.6
20260503194024 16 316 0.0 25.7 0.00 0.00 0.00 43 1016.6
20260503193942 16 308 1.6 25.7 0.00 0.00 0.00 42 1016.6
20260503193841 16 299 6.4 25.7 0.00 0.00 0.00 45 1016.6
20260503193759 16 335 12.9 27.4 0.00 0.00 0.00 45 1016.6
20260503193635 16 312 14.5 27.4 0.00 0.00 0.00 47 1016.6
20260503193532 16 323 11.3 27.4 0.00 0.00 0.00 46 1016.6
20260503193435 16 295 9.7 27.4 0.00 0.00 0.00 45 1016.6
20260503193335 16 319 14.5 27.4 0.00 0.00 0.00 44 1016.6
20260503193244 16 323 1.6 27.4 0.00 0.00 0.00 43 1016.6
20260503193154 16 332 1.6 27.4 0.00 0.00 0.00 44 1016.6
20260503193030 16 332 4.8 27.4 0.00 0.00 0.00 46 1016.6
20260503192927 16 277 12.9 27.4 0.00 0.00 0.00 46 1016.6
20260503192846 16 302 16.1 27.4 0.00 0.00 0.00 45 1016.8
20260503192743 16 280 8.0 22.5 0.00 0.00 0.00 44 1016.8
20260503192646 16 226 8.0 22.5 0.00 0.00 0.00 46 1016.8
20260503192543 16 304 8.0 22.5 0.00 0.00 0.00 47 1016.8
20260503192441 16 326 8.0 22.5 0.00 0.00 0.00 47 1016.8
20260503192340 16 326 6.4 22.5 0.00 0.00 0.00 46 1016.8
20260503192258 16 330 8.0 22.5 0.00 0.00 0.00 45 1016.8
20260503192136 16 289 9.7 22.5 0.00 0.00 0.00 44 1016.8
20260503192035 16 277 11.3 22.5 0.00 0.00 0.00 47 1016.8
20260503191955 16 311 12.9 22.5 0.00 0.00 0.00 47 1016.8
20260503191836 16 301 11.3 25.7 0.00 0.00 0.00 45 1016.8
20260503191755 16 330 6.4 25.7 0.00 0.00 0.00 44 1016.8
20260503191725 16 311 6.4 25.7 0.00 0.00 0.00 44 1016.8
20260503191541 16 323 1.6 25.7 0.00 0.00 0.00 43 1016.8
20260503191440 16 313 3.2 25.7 0.00 0.00 0.00 44 1016.8
20260503191337 16 288 3.2 25.7 0.00 0.00 0.00 45 1016.9
20260503191236 16 330 6.4 25.7 0.00 0.00 0.00 44 1016.9
20260503191135 16 316 9.7 25.7 0.00 0.00 0.00 46 1016.9
20260503191038 16 322 12.9 25.7 0.00 0.00 0.00 46 1016.9
20260503190941 16 326 12.9 25.7 0.00 0.00 0.00 43 1016.9
20260503190838 16 308 6.4 17.7 0.00 0.00 0.00 41 1016.9
20260503190737 16 329 1.6 12.9 0.00 0.00 0.00 41 1016.9
20260503190635 16 323 3.2 14.5 0.00 0.00 0.00 42 1016.9
20260503190553 16 329 6.4 14.5 0.00 0.00 0.00 46 1016.9
20260503190430 16 285 6.4 14.5 0.00 0.00 0.00 42 1016.9
20260503190352 17 320 1.6 14.5 0.00 0.00 0.00 41 1016.9
20260503190240 17 326 9.7 14.5 0.00 0.00 0.00 45 1016.9
20260503190149 17 316 8.0 19.3 0.00 0.00 0.00 41 1016.9
20260503190046 17 342 4.8 19.3 0.00 0.00 0.00 42 1016.9
20260503185924 17 287 0.0 19.3 0.00 0.00 0.00 44 1016.9
20260503185843 17 322 3.2 19.3 0.00 0.00 0.00 44 1017.1
20260503185741 17 275 8.0 19.3 0.00 0.00 0.00 44 1017.1
20260503185702 17 325 4.8 19.3 0.00 0.00 0.00 43 1017.1
20260503185539 17 313 3.2 19.3 0.00 0.00 0.00 45 1017.1
20260503185441 17 268 8.0 19.3 0.00 0.00 0.00 45 1017.1
20260503185401 16 296 14.5 19.3 0.00 0.00 0.00 47 1017.1
20260503185238 16 272 12.9 19.3 0.00 0.00 0.00 46 1017.1
20260503185137 16 254 6.4 19.3 0.00 0.00 0.00 46 1017.1
20260503185034 16 282 3.2 19.3 0.00 0.00 0.00 45 1017.1
20260503184953 16 275 4.8 19.3 0.00 0.00 0.00 45 1017.1
20260503184850 16 330 4.8 19.3 0.00 0.00 0.00 46 1017.1
20260503184811 16 328 4.8 19.3 0.00 0.00 0.00 44 1017.1
20260503184719 16 270 8.0 19.3 0.00 0.00 0.00 46 1017.1
20260503184604 16 299 6.4 19.3 0.00 0.00 0.00 43 1017.1
20260503184441 16 294 6.4 19.3 0.00 0.00 0.00 43 1017.1
20260503184339 16 306 6.4 19.3 0.00 0.00 0.00 45 1017.2
20260503184237 16 272 8.0 19.3 0.00 0.00 0.00 45 1017.2
20260503184135 16 315 8.0 20.9 0.00 0.00 0.00 42 1017.2
20260503184035 16 292 3.2 20.9 0.00 0.00 0.00 40 1017.2
20260503183933 16 311 6.4 20.9 0.00 0.00 0.00 40 1017.2
20260503183835 16 277 4.8 20.9 0.00 0.00 0.00 44 1017.2
20260503183733 16 274 9.7 20.9 0.00 0.00 0.00 44 1017.2
20260503183631 16 299 6.4 20.9 0.00 0.00 0.00 45 1017.2
20260503183530 16 271 3.2 20.9 0.00 0.00 0.00 44 1017.2
20260503183428 16 282 3.2 20.9 0.00 0.00 0.00 45 1017.2
20260503183329 16 282 6.4 20.9 0.00 0.00 0.00 45 1017.2
20260503183232 16 263 12.9 20.9 0.00 0.00 0.00 46 1017.2
20260503183203 16 272 12.9 20.9 0.00 0.00 0.00 45 1017.2
20260503183040 16 271 9.7 16.1 0.00 0.00 0.00 46 1017.2
20260503182937 16 316 6.4 12.9 0.00 0.00 0.00 47 1017.2
20260503182856 16 318 6.4 12.9 0.00 0.00 0.00 44 1017.4
20260503182755 16 322 3.2 12.9 0.00 0.00 0.00 43 1017.4
20260503182635 16 315 6.4 12.9 0.00 0.00 0.00 43 1017.4
20260503182533 16 322 4.8 12.9 0.00 0.00 0.00 41 1017.4
20260503182453 16 319 1.6 12.9 0.00 0.00 0.00 42 1017.4
20260503182334 16 325 1.6 16.1 0.00 0.00 0.00 42 1017.4
20260503182233 16 322 0.0 16.1 0.00 0.00 0.00 43 1017.4
20260503182131 16 298 0.0 16.1 0.00 0.00 0.00 44 1017.4
20260503182030 16 304 4.8 16.1 0.00 0.00 0.00 43 1017.4
20260503181928 16 322 9.7 16.1 0.00 0.00 0.00 42 1017.4
20260503181825 16 319 3.2 16.1 0.00 0.00 0.00 40 1017.4
20260503181740 16 312 1.6 16.1 0.00 0.00 0.00 40 1017.4
20260503181648 16 312 8.0 17.7 0.00 0.00 0.00 43 1017.4
20260503181545 16 272 8.0 17.7 0.00 0.00 0.00 44 1017.4
20260503181443 16 301 6.4 17.7 0.00 0.00 0.00 42 1017.4
20260503181341 16 325 6.4 17.7 0.00 0.00 0.00 40 1017.3
20260503181241 16 323 6.4 17.7 0.00 0.00 0.00 38 1017.3
20260503181139 16 309 4.8 17.7 0.00 0.00 0.00 44 1017.3
20260503181038 16 272 9.7 17.7 0.00 0.00 0.00 44 1017.3
20260503180957 16 281 9.7 17.7 0.00 0.00 0.00 42 1017.3
20260503180859 16 289 9.7 17.7 0.00 0.00 0.00 44 1017.3
20260503180737 16 328 6.4 17.7 0.00 0.00 0.00 42 1017.3
20260503180635 16 308 1.6 16.1 0.00 0.00 0.00 41 1017.3
20260503180534 16 330 1.6 16.1 0.00 0.00 0.00 43 1017.3
20260503180431 16 291 3.2 17.7 0.00 0.00 0.00 43 1017.3
20260503180330 16 292 4.8 17.7 0.00 0.00 0.00 43 1017.3
20260503180240 16 316 8.0 17.7 0.00 0.00 0.00 46 1017.3
20260503180153 16 277 9.7 17.7 0.00 0.00 0.00 45 1017.3
20260503180028 16 305 6.4 17.7 0.00 0.00 0.00 46 1017.3
20260503175927 16 330 6.4 17.7 0.00 0.00 0.00 44 1017.3
20260503175847 16 308 9.7 17.7 0.00 0.00 0.00 47 1017.6
20260503175724 16 311 4.8 17.7 0.00 0.00 0.00 47 1017.6
20260503175642 16 315 6.4 17.7 0.00 0.00 0.00 47 1017.6
20260503175540 16 328 8.0 17.7 0.00 0.00 0.00 44 1017.6
20260503175438 16 330 8.0 16.1 0.00 0.00 0.00 44 1017.6
20260503175340 15 277 0.0 12.9 0.00 0.00 0.00 43 1017.6
20260503175240 15 305 4.8 12.9 0.00 0.00 0.00 42 1017.6
20260503175137 15 325 3.2 12.9 0.00 0.00 0.00 41 1017.6
20260503175034 15 323 3.2 12.9 0.00 0.00 0.00 44 1017.6
20260503174932 15 330 1.6 12.9 0.00 0.00 0.00 43 1017.6
20260503174831 15 323 4.8 12.9 0.00 0.00 0.00 41 1017.6
20260503174749 16 330 9.7 12.9 0.00 0.00 0.00 39 1017.6
20260503174658 16 329 9.7 12.9 0.00 0.00 0.00 39 1017.6
20260503174538 16 325 8.0 12.9 0.00 0.00 0.00 41 1017.6
20260503174438 16 326 1.6 12.9 0.00 0.00 0.00 42 1017.6
20260503174355 16 301 3.2 12.9 0.00 0.00 0.00 40 1017.7
20260503174231 16 312 6.4 12.9 0.00 0.00 0.00 39 1017.7
20260503174131 16 320 1.6 12.9 0.00 0.00 0.00 43 1017.7
20260503174052 16 299 0.0 12.9 0.00 0.00 0.00 43 1017.7
20260503173929 16 299 3.2 12.9 0.00 0.00 0.00 44 1017.7
20260503173848 16 302 4.8 12.9 0.00 0.00 0.00 41 1017.7
20260503173730 16 315 4.8 12.9 0.00 0.00 0.00 41 1017.7
20260503173627 16 299 3.2 12.9 0.00 0.00 0.00 43 1017.7
20260503173546 16 295 1.6 12.9 0.00 0.00 0.00 43 1017.7
20260503173443 16 302 3.2 12.9 0.00 0.00 0.00 44 1017.7
20260503173402 16 292 8.0 12.9 0.00 0.00 0.00 44 1017.7
20260503173239 16 305 9.7 12.9 0.00 0.00 0.00 44 1017.7
20260503173209 16 296 6.4 16.1 0.00 0.00 0.00 44 1017.7
20260503173045 16 291 3.2 16.1 0.00 0.00 0.00 44 1017.7
20260503172942 16 280 3.2 16.1 0.00 0.00 0.00 42 1017.7
20260503172825 16 272 8.0 17.7 0.00 0.00 0.00 42 1017.9
20260503172743 16 264 3.2 17.7 0.00 0.00 0.00 39 1017.9
20260503172642 17 282 1.6 17.7 0.00 0.00 0.00 37 1017.9
20260503172541 17 267 3.2 17.7 0.00 0.00 0.00 41 1017.9
20260503172459 17 253 6.4 17.7 0.00 0.00 0.00 44 1017.9
20260503172337 17 287 9.7 17.7 0.00 0.00 0.00 42 1017.9
20260503172235 17 261 9.7 17.7 0.00 0.00 0.00 46 1017.9
20260503172153 17 296 9.7 17.7 0.00 0.00 0.00 42 1017.9
20260503172030 16 282 8.0 17.7 0.00 0.00 0.00 42 1017.9
20260503171932 16 299 0.0 11.3 0.00 0.00 0.00 41 1017.9
20260503171830 16 257 3.2 16.1 0.00 0.00 0.00 43 1017.9
20260503171741 16 284 4.8 16.1 0.00 0.00 0.00 42 1017.9
20260503171651 16 263 6.4 16.1 0.00 0.00 0.00 43 1017.9
20260503171527 16 270 8.0 19.3 0.00 0.00 0.00 43 1017.9
20260503171445 16 220 3.2 19.3 0.00 0.00 0.00 44 1017.9
20260503171342 16 188 1.6 19.3 0.00 0.00 0.00 44 1018.1
20260503171241 16 164 3.2 19.3 0.00 0.00 0.00 44 1018.1
20260503171144 16 320 6.4 19.3 0.00 0.00 0.00 45 1018.1
20260503171102 16 320 9.7 19.3 0.00 0.00 0.00 46 1018.1
20260503170940 16 298 11.3 19.3 0.00 0.00 0.00 46 1018.1
20260503170858 16 280 8.0 19.3 0.00 0.00 0.00 45 1018.1
20260503170736 16 226 11.3 19.3 0.00 0.00 0.00 45 1018.1
20260503170634 16 313 11.3 19.3 0.00 0.00 0.00 47 1018.1
20260503170532 16 295 6.4 14.5 0.00 0.00 0.00 47 1018.1
20260503170431 16 313 9.7 14.5 0.00 0.00 0.00 47 1018.1
20260503170333 16 322 6.4 14.5 0.00 0.00 0.00 47 1018.1
20260503170251 15 326 4.8 14.5 0.00 0.00 0.00 48 1018.1
20260503170201 15 251 3.2 14.5 0.00 0.00 0.00 47 1018.1
20260503160157 13 316 4.8 12.9 0.00 0.00 0.00 54 1018.4
20260503150935 11 236 6.4 12.9 0.00 0.00 0.00 60 1018.6
20260503150839 11 330 9.7 12.9 0.00 0.00 0.00 62 1018.6
20260503150737 11 332 4.8 11.3 0.00 0.00 0.00 62 1018.6
20260503150634 11 332 4.8 11.3 0.00 0.00 0.00 60 1018.6
20260503150531 11 360 4.8 12.9 0.00 0.00 0.00 62 1018.6
20260503150450 11 44 1.6 12.9 0.00 0.00 0.00 62 1018.6
20260503150327 11 10 3.2 16.1 0.00 0.00 0.00 60 1018.6
20260503150257 11 226 4.8 16.1 0.00 0.00 0.00 61 1018.6
20260503150147 11 69 3.2 16.1 0.00 0.00 0.00 61 1018.6
20260503140235 9 332 8.0 11.3 0.00 0.00 0.00 71 1018.5
20260503140146 9 318 6.4 11.3 0.00 0.00 0.00 71 1018.5
20260503131336 7 329 8.0 9.7 0.00 0.00 0.00 78 1018.1
20260503131255 7 68 6.4 9.7 0.00 0.00 0.00 80 1018.1
20260503131156 7 329 4.8 9.7 0.00 0.00 0.00 80 1018.1
20260503131034 7 223 3.2 9.7 0.00 0.00 0.00 80 1018.1
20260503130931 7 316 1.6 9.7 0.00 0.00 0.00 80 1018.1
20260503130831 7 222 1.6 9.7 0.00 0.00 0.00 80 1018.1
20260503130751 7 318 3.2 9.7 0.00 0.00 0.00 80 1018.1
20260503130628 7 332 3.2 9.7 0.00 0.00 0.00 80 1018.1
20260503130526 7 267 8.0 9.7 0.00 0.00 0.00 80 1018.1
20260503130428 7 200 4.8 9.7 0.00 0.00 0.00 80 1018.1
20260503130326 7 288 6.4 9.7 0.00 0.00 0.00 80 1018.1
20260503130237 7 323 8.0 9.7 0.00 0.00 0.00 80 1018.1
20260503130146 7 295 6.4 9.7 0.00 0.00 0.00 80 1018.1
20260503120143 6 333 11.3 17.7 0.00 0.00 0.00 86 1017.5
20260503110824 6 270 11.3 17.7 0.00 0.00 0.00 90 1016.7
20260503110742 6 308 12.9 17.7 0.00 0.00 0.00 90 1016.7
20260503110642 6 260 11.3 17.7 0.00 0.00 0.00 90 1016.7
20260503110541 6 333 9.7 17.7 0.00 0.00 0.00 90 1016.7
20260503110459 6 65 14.5 17.7 0.00 0.00 0.00 90 1016.7
20260503110336 6 219 11.3 17.7 0.00 0.00 0.00 90 1016.7
20260503110240 6 319 12.9 17.7 0.00 0.00 0.00 90 1016.7
20260503110210 6 199 11.3 17.7 0.00 0.00 0.00 90 1016.7
20260503100247 6 80 12.9 20.9 0.00 0.00 0.00 90 1016.5
20260503100218 6 100 14.5 20.9 0.00 0.00 0.00 90 1016.5
20260503090424 6 329 11.3 17.7 0.00 0.00 0.00 90 1016.3
20260503090343 6 326 11.3 17.7 0.00 0.00 0.00 90 1016.3
20260503090242 6 284 8.0 17.7 0.00 0.00 0.00 90 1016.3
20260503090152 6 333 6.4 17.7 0.00 0.00 0.00 90 1016.3
20260503081529 6 333 8.0 12.9 0.00 0.00 0.00 89 1016.1
20260503081426 6 333 8.0 12.9 0.00 0.00 0.00 89 1016.1
20260503081330 6 333 8.0 12.9 0.00 0.00 0.00 89 1015.8
20260503081229 6 335 9.7 12.9 0.00 0.00 0.00 89 1015.8
20260503081128 7 319 8.0 12.9 0.00 0.00 0.00 89 1015.8
20260503081025 7 335 4.8 12.9 0.00 0.00 0.00 89 1015.8
20260503080924 7 322 6.4 12.9 0.00 0.00 0.00 88 1015.8
20260503080843 7 315 6.4 12.9 0.00 0.00 0.00 88 1015.8
20260503080740 7 335 9.7 12.9 0.00 0.00 0.00 88 1015.8
20260503080658 7 326 8.0 12.9 0.00 0.00 0.00 88 1015.8
20260503080541 7 171 9.7 14.5 0.00 0.00 0.00 88 1015.8
20260503080459 7 328 11.3 14.5 0.00 0.00 0.00 88 1015.8
20260503080356 7 184 9.7 16.1 0.00 0.00 0.00 88 1015.8
20260503080233 7 333 6.4 16.1 0.00 0.00 0.00 88 1015.8
20260503080203 7 171 8.0 16.1 0.00 0.00 0.00 88 1015.8
20260503072941 7 332 8.0 17.7 0.00 0.00 0.00 87 1015.6
20260503072840 7 320 11.3 17.7 0.00 0.00 0.00 87 1015.5
20260503072741 7 328 11.3 17.7 0.00 0.00 0.00 87 1015.5
20260503072640 7 333 11.3 16.1 0.00 0.00 0.00 87 1015.5
20260503072541 7 329 9.7 16.1 0.00 0.00 0.00 87 1015.5
20260503072439 7 333 8.0 16.1 0.00 0.00 0.00 87 1015.5
20260503072357 7 196 6.4 16.1 0.00 0.00 0.00 87 1015.5
20260503072235 7 332 9.7 16.1 0.00 0.00 0.00 87 1015.5
20260503072154 7 312 9.7 16.1 0.00 0.00 0.00 87 1015.5
20260503072030 7 333 11.3 16.1 0.00 0.00 0.00 87 1015.5
20260503071930 7 247 11.3 16.1 0.00 0.00 0.00 87 1015.5
20260503071836 7 232 9.7 16.1 0.00 0.00 0.00 87 1015.5
20260503071733 7 277 6.4 16.1 0.00 0.00 0.00 86 1015.5
20260503071704 7 323 9.7 16.1 0.00 0.00 0.00 86 1015.5
20260503071543 7 329 11.3 16.1 0.00 0.00 0.00 86 1015.5
20260503071441 7 333 12.9 16.1 0.00 0.00 0.00 86 1015.5
20260503071339 7 316 11.3 16.1 0.00 0.00 0.00 86 1015.5
20260503071237 7 191 9.7 16.1 0.00 0.00 0.00 86 1015.5
20260503071200 7 330 8.0 16.1 0.00 0.00 0.00 86 1015.5
20260503071041 7 312 9.7 16.1 0.00 0.00 0.00 86 1015.5
20260503070939 7 104 11.3 17.7 0.00 0.00 0.00 86 1015.5
20260503070837 7 175 11.3 17.7 0.00 0.00 0.00 86 1015.5
20260503070756 7 311 9.7 17.7 0.00 0.00 0.00 86 1015.5
20260503070632 7 220 11.3 19.3 0.00 0.00 0.00 86 1015.5
20260503070531 7 315 6.4 19.3 0.00 0.00 0.00 86 1015.5
20260503070430 7 229 8.0 19.3 0.00 0.00 0.00 86 1015.5
20260503070333 7 326 11.3 19.3 0.00 0.00 0.00 86 1015.5
20260503070303 7 265 12.9 19.3 0.00 0.00 0.00 86 1015.5
20260503070151 7 274 11.3 19.3 0.00 0.00 0.00 85 1015.5
20260503060329 8 284 9.7 19.3 0.00 0.00 0.00 81 1015.1
20260503060244 8 304 8.0 19.3 0.00 0.00 0.00 81 1015.1
20260503060154 8 330 11.3 19.3 0.00 0.00 0.00 81 1015.1
20260503055127 8 325 12.9 19.3 0.00 0.00 0.00 80 1015.1
20260503055026 8 319 8.0 20.9 0.00 0.00 0.00 80 1015.1
20260503054924 8 330 9.7 20.9 0.00 0.00 0.00 80 1015.1
20260503054827 8 291 11.3 20.9 0.00 0.00 0.00 79 1015.1
20260503054726 8 227 9.7 20.9 0.00 0.00 0.00 79 1015.1
20260503054656 8 192 9.7 20.9 0.00 0.00 0.00 79 1015.1
20260503054534 8 333 12.9 20.9 0.00 0.00 0.00 79 1015.1
20260503054432 8 335 12.9 22.5 0.00 0.00 0.00 79 1015.1
20260503054330 8 280 11.3 22.5 0.00 0.00 0.00 79 1015.1
20260503054249 8 257 17.7 22.5 0.00 0.00 0.00 79 1015.1
20260503054206 8 240 14.5 22.5 0.00 0.00 0.00 79 1015.1
20260503054104 8 261 11.3 22.5 0.00 0.00 0.00 79 1015.1
20260503053943 8 282 11.3 22.5 0.00 0.00 0.00 79 1015.1
20260503053841 8 113 8.0 22.5 0.00 0.00 0.00 78 1015.1
20260503053739 8 227 14.5 22.5 0.00 0.00 0.00 78 1015.1
20260503053657 8 199 19.3 22.5 0.00 0.00 0.00 78 1015.1
20260503053555 8 280 17.7 22.5 0.00 0.00 0.00 78 1015.1
20260503053452 8 360 11.3 19.3 0.00 0.00 0.00 78 1015.1
20260503053351 8 312 11.3 19.3 0.00 0.00 0.00 77 1015.1
20260503053240 8 315 4.8 19.3 0.00 0.00 0.00 77 1015.1
20260503053149 8 302 6.4 19.3 0.00 0.00 0.00 77 1015.1
20260503053029 8 323 12.9 19.3 0.00 0.00 0.00 77 1015.1
20260503052928 8 271 11.3 17.7 0.00 0.00 0.00 77 1015.1
20260503052847 8 247 9.7 17.7 0.00 0.00 0.00 77 1015.0
20260503052725 8 254 11.3 17.7 0.00 0.00 0.00 77 1015.0
20260503052643 8 315 12.9 17.7 0.00 0.00 0.00 77 1015.0
20260503052601 8 239 11.3 17.7 0.00 0.00 0.00 77 1015.0
20260503052438 8 251 11.3 17.7 0.00 0.00 0.00 77 1015.0
20260503052336 8 250 11.3 17.7 0.00 0.00 0.00 77 1015.0
20260503052240 8 320 11.3 17.7 0.00 0.00 0.00 77 1015.0
20260503052138 8 326 8.0 17.7 0.00 0.00 0.00 77 1015.0
20260503052056 8 280 8.0 17.7 0.00 0.00 0.00 76 1015.0
20260503051934 8 90 11.3 17.7 0.00 0.00 0.00 76 1015.0
20260503051833 8 319 9.7 17.7 0.00 0.00 0.00 76 1015.0
20260503051732 8 288 9.7 17.7 0.00 0.00 0.00 76 1015.0
20260503051701 8 186 8.0 19.3 0.00 0.00 0.00 76 1015.0
20260503051538 8 152 6.4 19.3 0.00 0.00 0.00 76 1015.0
20260503051441 8 339 8.0 19.3 0.00 0.00 0.00 75 1015.0
20260503051339 8 332 8.0 19.3 0.00 0.00 0.00 75 1015.0
20260503051242 8 178 8.0 19.3 0.00 0.00 0.00 75 1015.0
20260503051159 8 236 8.0 19.3 0.00 0.00 0.00 75 1015.0
20260503051035 8 277 6.4 19.3 0.00 0.00 0.00 75 1015.0
20260503050934 8 299 8.0 20.9 0.00 0.00 0.00 75 1015.0
20260503050834 8 268 11.3 20.9 0.00 0.00 0.00 75 1015.0
20260503050735 8 223 9.7 20.9 0.00 0.00 0.00 75 1015.0
20260503050635 8 322 9.7 20.9 0.00 0.00 0.00 75 1015.0
20260503050531 8 254 12.9 20.9 0.00 0.00 0.00 75 1015.0
20260503050429 8 270 9.7 24.1 0.00 0.00 0.00 75 1015.0
20260503050327 8 268 11.3 24.1 0.00 0.00 0.00 75 1015.0
20260503050226 8 179 8.0 24.1 0.00 0.00 0.00 75 1015.0
20260503050158 8 162 11.3 24.1 0.00 0.00 0.00 75 1015.0
20260503050038 8 267 11.3 24.1 0.00 0.00 0.00 74 1015.0
20260503045938 8 316 12.9 24.1 0.00 0.00 0.00 74 1015.0
20260503045837 8 337 12.9 24.1 0.00 0.00 0.00 74 1015.0
20260503045734 8 340 17.7 24.1 0.00 0.00 0.00 74 1015.0
20260503045632 9 219 11.3 22.5 0.00 0.00 0.00 74 1015.0
20260503045531 9 333 8.0 22.5 0.00 0.00 0.00 74 1015.0
20260503045430 9 116 14.5 22.5 0.00 0.00 0.00 74 1015.0
20260503045352 9 120 11.3 22.5 0.00 0.00 0.00 74 1015.0
20260503045231 9 295 8.0 22.5 0.00 0.00 0.00 74 1015.0
20260503045129 9 209 14.5 22.5 0.00 0.00 0.00 74 1015.0
20260503045027 9 185 11.3 22.5 0.00 0.00 0.00 73 1015.0
20260503044946 9 311 16.1 22.5 0.00 0.00 0.00 73 1015.0
20260503044843 9 333 14.5 20.9 0.00 0.00 0.00 73 1015.0
20260503044741 9 294 12.9 19.3 0.00 0.00 0.00 73 1015.0
20260503044710 9 162 12.9 19.3 0.00 0.00 0.00 73 1015.0
20260503044546 9 182 11.3 19.3 0.00 0.00 0.00 73 1015.0
20260503044444 9 316 9.7 19.3 0.00 0.00 0.00 73 1015.0
20260503044341 9 347 12.9 19.3 0.00 0.00 0.00 73 1014.9
20260503044238 9 323 12.9 19.3 0.00 0.00 0.00 73 1014.9
20260503044136 9 330 12.9 19.3 0.00 0.00 0.00 72 1014.9
20260503044034 9 213 11.3 19.3 0.00 0.00 0.00 72 1014.9
20260503043955 9 171 6.4 19.3 0.00 0.00 0.00 72 1014.9
20260503043831 9 304 11.3 19.3 0.00 0.00 0.00 72 1014.9
20260503043730 9 258 9.7 19.3 0.00 0.00 0.00 72 1014.9
20260503043648 9 227 8.0 19.3 0.00 0.00 0.00 72 1014.9
20260503043553 9 217 14.5 19.3 0.00 0.00 0.00 72 1014.9
20260503043430 9 313 12.9 19.3 0.00 0.00 0.00 72 1014.9
20260503043329 9 270 12.9 19.3 0.00 0.00 0.00 72 1014.9
20260503043238 9 333 6.4 19.3 0.00 0.00 0.00 72 1014.9
20260503043148 9 240 8.0 19.3 0.00 0.00 0.00 72 1014.9
20260503043026 9 144 12.9 19.3 0.00 0.00 0.00 72 1014.9
20260503042924 9 251 8.0 19.3 0.00 0.00 0.00 72 1014.9
20260503042843 9 294 11.3 19.3 0.00 0.00 0.00 72 1014.8
20260503042804 9 267 12.9 20.9 0.00 0.00 0.00 71 1014.8
20260503042641 9 304 12.9 22.5 0.00 0.00 0.00 71 1014.8
20260503042540 9 330 11.3 22.5 0.00 0.00 0.00 71 1014.8
20260503042440 9 174 8.0 22.5 0.00 0.00 0.00 71 1014.8
20260503042338 9 304 9.7 22.5 0.00 0.00 0.00 71 1014.8
20260503042257 9 257 11.3 22.5 0.00 0.00 0.00 71 1014.8
20260503042133 9 312 11.3 22.5 0.00 0.00 0.00 71 1014.8
20260503042035 9 333 11.3 22.5 0.00 0.00 0.00 71 1014.8
20260503041934 9 332 11.3 22.5 0.00 0.00 0.00 71 1014.8
20260503041831 9 333 16.1 22.5 0.00 0.00 0.00 71 1014.8
20260503041730 9 256 16.1 20.9 0.00 0.00 0.00 71 1014.8
20260503041700 9 168 11.3 20.9 0.00 0.00 0.00 71 1014.8
20260503041538 10 275 8.0 20.9 0.00 0.00 0.00 70 1014.8
20260503041438 10 113 11.3 20.9 0.00 0.00 0.00 70 1014.8
20260503041356 10 316 8.0 16.1 0.00 0.00 0.00 70 1014.9
20260503041241 10 328 9.7 16.1 0.00 0.00 0.00 70 1014.9
20260503041138 10 203 11.3 16.1 0.00 0.00 0.00 70 1014.9
20260503041057 10 264 11.3 16.1 0.00 0.00 0.00 70 1014.9
20260503040933 10 330 6.4 16.1 0.00 0.00 0.00 70 1014.9
20260503040831 10 195 6.4 16.1 0.00 0.00 0.00 70 1014.9
20260503040730 10 325 6.4 16.1 0.00 0.00 0.00 70 1014.9
20260503040630 10 282 9.7 17.7 0.00 0.00 0.00 69 1014.9
20260503040538 10 150 11.3 20.9 0.00 0.00 0.00 69 1014.9
20260503040335 10 167 8.0 20.9 0.00 0.00 0.00 69 1014.9
20260503040234 10 127 8.0 20.9 0.00 0.00 0.00 69 1014.9
20260503040205 10 333 9.7 20.9 0.00 0.00 0.00 69 1014.9
20260503040042 10 251 9.7 20.9 0.00 0.00 0.00 69 1014.9
20260503035941 10 316 11.3 20.9 0.00 0.00 0.00 69 1014.9
20260503035824 10 88 12.9 20.9 0.00 0.00 0.00 69 1014.8
20260503035742 10 302 14.5 20.9 0.00 0.00 0.00 69 1014.8
20260503035640 10 182 14.5 20.9 0.00 0.00 0.00 69 1014.8
20260503035539 10 332 8.0 17.7 0.00 0.00 0.00 69 1014.8
20260503035439 10 212 9.7 17.7 0.00 0.00 0.00 69 1014.8
20260503035336 10 150 6.4 17.7 0.00 0.00 0.00 69 1014.8
20260503035255 10 332 3.2 17.7 0.00 0.00 0.00 69 1014.8
20260503035136 10 335 9.7 17.7 0.00 0.00 0.00 68 1014.8
20260503035035 10 234 6.4 17.7 0.00 0.00 0.00 68 1014.8
20260503034932 10 229 11.3 17.7 0.00 0.00 0.00 68 1014.8
20260503034831 10 328 12.9 17.7 0.00 0.00 0.00 68 1014.8
20260503034801 10 291 6.4 16.1 0.00 0.00 0.00 68 1014.8
20260503034650 10 109 9.7 16.1 0.00 0.00 0.00 68 1014.8
20260503034529 10 335 8.0 16.1 0.00 0.00 0.00 69 1014.8
20260503034446 10 244 4.8 16.1 0.00 0.00 0.00 68 1014.8
20260503034344 10 298 6.4 16.1 0.00 0.00 0.00 68 1014.7
20260503034245 10 309 6.4 17.7 0.00 0.00 0.00 68 1014.7
20260503034205 10 333 4.8 19.3 0.00 0.00 0.00 68 1014.7
20260503034103 10 229 1.6 19.3 0.00 0.00 0.00 68 1014.7
20260503033940 10 82 6.4 19.3 0.00 0.00 0.00 68 1014.7
20260503033839 10 96 11.3 19.3 0.00 0.00 0.00 68 1014.7
20260503033738 10 295 8.0 19.3 0.00 0.00 0.00 68 1014.7
20260503033636 10 332 8.0 19.3 0.00 0.00 0.00 68 1014.7
20260503033533 10 271 8.0 19.3 0.00 0.00 0.00 68 1014.7
20260503033435 10 93 9.7 19.3 0.00 0.00 0.00 68 1014.7
20260503033334 10 308 14.5 20.9 0.00 0.00 0.00 68 1014.7
20260503033243 10 333 9.7 20.9 0.00 0.00 0.00 68 1014.7
20260503033152 10 167 8.0 20.9 0.00 0.00 0.00 67 1014.7
20260503033028 10 322 9.7 20.9 0.00 0.00 0.00 67 1014.7
20260503032927 10 185 11.3 20.9 0.00 0.00 0.00 67 1014.7
20260503032825 10 240 6.4 20.9 0.00 0.00 0.00 67 1014.7
20260503032749 10 92 11.3 20.9 0.00 0.00 0.00 66 1014.7
20260503032628 10 93 11.3 20.9 0.00 0.00 0.00 66 1014.7
20260503032545 10 208 14.5 20.9 0.00 0.00 0.00 66 1014.7
20260503032443 10 178 12.9 20.9 0.00 0.00 0.00 66 1014.7
20260503032341 10 215 9.7 20.9 0.00 0.00 0.00 66 1014.7
20260503032240 10 301 14.5 20.9 0.00 0.00 0.00 66 1014.7
20260503032159 10 289 14.5 19.3 0.00 0.00 0.00 66 1014.7
20260503032037 10 332 9.7 19.3 0.00 0.00 0.00 66 1014.7
20260503031955 10 6 11.3 19.3 0.00 0.00 0.00 65 1014.7
20260503031857 10 312 11.3 19.3 0.00 0.00 0.00 65 1014.7
20260503031815 10 271 8.0 19.3 0.00 0.00 0.00 66 1014.7
20260503031701 10 247 9.7 20.9 0.00 0.00 0.00 65 1014.7
20260503031539 10 311 8.0 20.9 0.00 0.00 0.00 65 1014.7
20260503031438 10 326 11.3 20.9 0.00 0.00 0.00 65 1014.7
20260503031337 10 359 8.0 22.5 0.00 0.00 0.00 65 1014.7
20260503031236 10 333 9.7 22.5 0.00 0.00 0.00 65 1014.7
20260503031134 10 305 8.0 22.5 0.00 0.00 0.00 65 1014.7
20260503031036 10 281 3.2 22.5 0.00 0.00 0.00 65 1014.7
20260503030954 10 199 9.7 22.5 0.00 0.00 0.00 64 1014.7
20260503030832 10 333 12.9 22.5 0.00 0.00 0.00 64 1014.7
20260503030732 11 233 11.3 22.5 0.00 0.00 0.00 65 1014.7
20260503030650 11 52 6.4 22.5 0.00 0.00 0.00 64 1014.7
20260503030527 11 333 12.9 22.5 0.00 0.00 0.00 64 1014.7
20260503030427 11 54 11.3 22.5 0.00 0.00 0.00 64 1014.7
20260503030325 11 167 11.3 17.7 0.00 0.00 0.00 64 1014.7
20260503030227 11 199 8.0 17.7 0.00 0.00 0.00 64 1014.7
20260503030158 11 333 6.4 17.7 0.00 0.00 0.00 64 1014.7
20260503030034 11 330 4.8 17.7 0.00 0.00 0.00 64 1014.7
20260503025932 11 332 9.7 17.7 0.00 0.00 0.00 63 1014.7
20260503025831 11 168 11.3 17.7 0.00 0.00 0.00 63 1014.6
20260503025729 11 79 11.3 19.3 0.00 0.00 0.00 63 1014.6
20260503025647 11 332 8.0 19.3 0.00 0.00 0.00 63 1014.6
20260503025605 11 332 8.0 19.3 0.00 0.00 0.00 63 1014.6
20260503025425 11 311 4.8 19.3 0.00 0.00 0.00 63 1014.6
20260503025324 11 223 11.3 19.3 0.00 0.00 0.00 63 1014.6
20260503025241 11 217 9.7 19.3 0.00 0.00 0.00 63 1014.6
20260503025140 11 213 8.0 19.3 0.00 0.00 0.00 62 1014.6
20260503025039 11 305 4.8 19.3 0.00 0.00 0.00 62 1014.6
20260503024937 11 133 11.3 19.3 0.00 0.00 0.00 62 1014.6
20260503024835 11 169 12.9 19.3 0.00 0.00 0.00 63 1014.6
20260503024738 11 210 9.7 19.3 0.00 0.00 0.00 63 1014.6
20260503024647 11 346 11.3 19.3 0.00 0.00 0.00 62 1014.6
20260503024525 11 350 9.7 19.3 0.00 0.00 0.00 62 1014.6
20260503024442 11 329 8.0 19.3 0.00 0.00 0.00 62 1014.6
20260503024340 11 95 8.0 19.3 0.00 0.00 0.00 62 1014.3
20260503024239 11 330 9.7 19.3 0.00 0.00 0.00 62 1014.3
20260503024136 11 127 14.5 19.3 0.00 0.00 0.00 63 1014.3
20260503024054 11 217 8.0 19.3 0.00 0.00 0.00 63 1014.3
20260503023935 11 232 8.0 20.9 0.00 0.00 0.00 63 1014.3
20260503023833 11 333 8.0 20.9 0.00 0.00 0.00 63 1014.3
20260503023731 11 145 3.2 20.9 0.00 0.00 0.00 62 1014.3
20260503023650 11 344 8.0 20.9 0.00 0.00 0.00 62 1014.3
20260503023547 11 268 11.3 20.9 0.00 0.00 0.00 62 1014.3
20260503023426 11 147 11.3 20.9 0.00 0.00 0.00 61 1014.3
20260503023324 11 203 14.5 20.9 0.00 0.00 0.00 62 1014.3
20260503023238 11 253 12.9 20.9 0.00 0.00 0.00 62 1014.3
20260503023147 11 344 11.3 20.9 0.00 0.00 0.00 62 1014.3
20260503023044 11 260 12.9 20.9 0.00 0.00 0.00 62 1014.3
20260503023003 11 254 8.0 20.9 0.00 0.00 0.00 61 1014.3
20260503022839 11 333 6.4 20.9 0.00 0.00 0.00 60 1014.1
20260503022739 11 237 12.9 20.9 0.00 0.00 0.00 61 1014.1
20260503022638 11 282 9.7 20.9 0.00 0.00 0.00 60 1014.1
20260503022536 11 330 9.7 20.9 0.00 0.00 0.00 61 1014.1
20260503022455 11 332 4.8 24.1 0.00 0.00 0.00 61 1014.1
20260503022356 11 329 6.4 24.1 0.00 0.00 0.00 61 1014.1
20260503022236 11 167 8.0 24.1 0.00 0.00 0.00 60 1014.1
20260503022134 11 230 11.3 24.1 0.00 0.00 0.00 60 1014.1
20260503022033 11 227 12.9 27.4 0.00 0.00 0.00 60 1014.1
20260503021931 11 339 8.0 27.4 0.00 0.00 0.00 59 1014.1
20260503021830 11 332 11.3 27.4 0.00 0.00 0.00 60 1014.1
20260503021752 12 333 9.7 27.4 0.00 0.00 0.00 60 1014.1
20260503021700 12 241 16.1 27.4 0.00 0.00 0.00 59 1014.1
20260503021542 12 330 16.1 27.4 0.00 0.00 0.00 59 1014.1
20260503021441 12 239 9.7 27.4 0.00 0.00 0.00 59 1014.1
20260503021340 12 248 14.5 32.2 0.00 0.00 0.00 58 1014.0
20260503021240 12 333 17.7 32.2 0.00 0.00 0.00 59 1014.0
20260503021139 12 346 14.5 32.2 0.00 0.00 0.00 59 1014.0
20260503021037 12 112 12.9 32.2 0.00 0.00 0.00 58 1014.0
20260503020940 12 230 14.5 32.2 0.00 0.00 0.00 58 1014.0
20260503020838 12 83 17.7 32.2 0.00 0.00 0.00 58 1014.0
20260503020737 12 284 16.1 32.2 0.00 0.00 0.00 58 1014.0
20260503020635 12 328 12.9 32.2 0.00 0.00 0.00 57 1014.0
20260503020534 12 328 17.7 32.2 0.00 0.00 0.00 58 1014.0
20260503020432 12 312 9.7 33.8 0.00 0.00 0.00 57 1014.0
20260503020351 12 329 12.9 33.8 0.00 0.00 0.00 57 1014.0
20260503020244 12 346 14.5 33.8 0.00 0.00 0.00 56 1014.0
20260503020153 12 360 19.3 33.8 0.00 0.00 0.00 56 1014.0
20260503020049 12 195 19.3 33.8 0.00 0.00 0.00 56 1014.0
20260503015925 12 47 20.9 33.8 0.00 0.00 0.00 56 1014.0
20260503015825 12 216 20.9 33.8 0.00 0.00 0.00 56 1013.6
20260503015724 12 75 9.7 33.8 0.00 0.00 0.00 55 1013.6
20260503015641 12 333 12.9 33.8 0.00 0.00 0.00 55 1013.6
20260503015540 12 353 22.5 33.8 0.00 0.00 0.00 55 1013.6
20260503015443 12 343 12.9 20.9 0.00 0.00 0.00 56 1013.6
20260503015341 12 174 12.9 20.9 0.00 0.00 0.00 55 1013.6
20260503015240 12 332 12.9 20.9 0.00 0.00 0.00 55 1013.6
20260503015138 12 353 11.3 20.9 0.00 0.00 0.00 55 1013.6
20260503015036 12 329 6.4 20.9 0.00 0.00 0.00 54 1013.6
20260503014936 12 335 6.4 20.9 0.00 0.00 0.00 54 1013.6
20260503014854 12 336 8.0 20.9 0.00 0.00 0.00 53 1013.6
20260503014751 12 347 12.9 20.9 0.00 0.00 0.00 53 1013.6
20260503014724 12 339 11.3 20.9 0.00 0.00 0.00 53 1013.6
20260503014540 12 330 11.3 20.9 0.00 0.00 0.00 53 1013.6
20260503014439 12 360 11.3 20.9 0.00 0.00 0.00 53 1013.6
20260503014338 12 346 11.3 16.1 0.00 0.00 0.00 53 1013.3
20260503014235 12 332 11.3 16.1 0.00 0.00 0.00 53 1013.3
20260503014135 12 337 11.3 16.1 0.00 0.00 0.00 54 1013.3
20260503014052 12 346 4.8 16.1 0.00 0.00 0.00 54 1013.3
20260503013951 12 330 6.4 17.7 0.00 0.00 0.00 53 1013.3
20260503013832 12 333 9.7 17.7 0.00 0.00 0.00 52 1013.3
20260503013730 12 344 8.0 17.7 0.00 0.00 0.00 52 1013.3
20260503013628 12 336 4.8 17.7 0.00 0.00 0.00 53 1013.3
20260503013526 12 337 8.0 19.3 0.00 0.00 0.00 53 1013.3
20260503013425 12 326 4.8 19.3 0.00 0.00 0.00 52 1013.3
20260503013343 12 333 6.4 19.3 0.00 0.00 0.00 53 1013.3
20260503013234 12 337 9.7 19.3 0.00 0.00 0.00 52 1013.3
20260503013147 12 326 11.3 19.3 0.00 0.00 0.00 52 1013.3
20260503013024 12 329 6.4 19.3 0.00 0.00 0.00 51 1013.3
20260503012943 12 333 8.0 19.3 0.00 0.00 0.00 53 1013.3
20260503012841 12 323 8.0 19.3 0.00 0.00 0.00 53 1013.1
20260503012739 12 323 9.7 19.3 0.00 0.00 0.00 52 1013.1
20260503012638 12 337 8.0 19.3 0.00 0.00 0.00 51 1013.1
20260503012558 12 333 6.4 19.3 0.00 0.00 0.00 51 1013.1
20260503012435 12 335 8.0 19.3 0.00 0.00 0.00 52 1013.1
20260503012337 12 335 11.3 19.3 0.00 0.00 0.00 51 1013.1
20260503012235 12 340 9.7 16.1 0.00 0.00 0.00 50 1013.1
20260503012154 12 318 8.0 17.7 0.00 0.00 0.00 52 1013.1
20260503012032 12 335 4.8 17.7 0.00 0.00 0.00 51 1013.1
20260503011931 12 337 3.2 17.7 0.00 0.00 0.00 52 1013.1
20260503011851 12 332 6.4 17.7 0.00 0.00 0.00 52 1013.1
20260503011730 12 346 9.7 17.7 0.00 0.00 0.00 51 1013.1
20260503011700 12 335 11.3 17.7 0.00 0.00 0.00 52 1013.1
20260503011541 12 322 9.7 17.7 0.00 0.00 0.00 51 1013.1
20260503011440 13 330 11.3 17.7 0.00 0.00 0.00 50 1013.1
20260503011357 13 335 11.3 17.7 0.00 0.00 0.00 51 1013.1
20260503011235 13 330 6.4 17.7 0.00 0.00 0.00 51 1013.1
20260503011135 13 329 4.8 17.7 0.00 0.00 0.00 51 1013.1
20260503011033 13 339 6.4 17.7 0.00 0.00 0.00 51 1013.1
20260503010932 13 342 4.8 17.7 0.00 0.00 0.00 51 1013.1
20260503010835 13 342 4.8 17.7 0.00 0.00 0.00 50 1013.1
20260503010732 13 343 12.9 17.7 0.00 0.00 0.00 51 1013.1
20260503010631 13 335 11.3 17.7 0.00 0.00 0.00 51 1013.1
20260503010529 13 352 8.0 16.1 0.00 0.00 0.00 51 1013.1
20260503010428 13 326 6.4 16.1 0.00 0.00 0.00 50 1013.1
20260503010327 13 332 8.0 16.1 0.00 0.00 0.00 49 1013.1
20260503010231 13 357 6.4 16.1 0.00 0.00 0.00 50 1013.1
20260503010202 13 333 6.4 16.1 0.00 0.00 0.00 49 1013.1
20260503010040 13 349 6.4 16.1 0.00 0.00 0.00 49 1013.1
20260503005938 13 330 8.0 16.1 0.00 0.00 0.00 49 1013.1
20260503005837 13 335 9.7 20.9 0.00 0.00 0.00 49 1013.1
20260503005737 13 337 9.7 20.9 0.00 0.00 0.00 48 1013.1
20260503005638 13 339 9.7 20.9 0.00 0.00 0.00 48 1013.1
20260503005541 13 335 9.7 29.0 0.00 0.00 0.00 49 1013.1
20260503005439 13 114 9.7 29.0 0.00 0.00 0.00 49 1013.1
20260503005336 13 337 11.3 29.0 0.00 0.00 0.00 48 1013.1
20260503005236 13 354 9.7 29.0 0.00 0.00 0.00 48 1013.1
20260503005135 13 330 4.8 29.0 0.00 0.00 0.00 48 1013.1
20260503005033 13 54 12.9 29.0 0.00 0.00 0.00 48 1013.1
20260503004952 13 329 8.0 29.0 0.00 0.00 0.00 48 1013.1
20260503004832 13 330 16.1 29.0 0.00 0.00 0.00 48 1013.1
20260503004755 13 332 19.3 29.0 0.00 0.00 0.00 48 1013.1
20260503004703 13 354 19.3 29.0 0.00 0.00 0.00 48 1013.1
20260503004540 13 350 17.7 25.7 0.00 0.00 0.00 47 1013.1
20260503004438 13 158 14.5 25.7 0.00 0.00 0.00 47 1013.1
20260503004337 13 333 11.3 22.5 0.00 0.00 0.00 47 1012.8
20260503004239 13 346 12.9 22.5 0.00 0.00 0.00 47 1012.8
20260503004137 13 329 14.5 22.5 0.00 0.00 0.00 47 1012.8
20260503004043 13 342 11.3 22.5 0.00 0.00 0.00 47 1012.8
20260503003940 13 288 9.7 20.9 0.00 0.00 0.00 47 1012.8
20260503003838 13 353 8.0 20.9 0.00 0.00 0.00 47 1012.8
20260503003737 13 335 6.4 20.9 0.00 0.00 0.00 47 1012.8
20260503003634 13 335 9.7 20.9 0.00 0.00 0.00 47 1012.8
20260503003535 13 326 11.3 20.9 0.00 0.00 0.00 46 1012.8
20260503003454 13 326 14.5 20.9 0.00 0.00 0.00 47 1012.8
20260503003336 13 346 9.7 17.7 0.00 0.00 0.00 46 1012.8
20260503003236 13 326 9.7 17.7 0.00 0.00 0.00 46 1012.8
20260503003206 13 349 8.0 17.7 0.00 0.00 0.00 47 1012.8
20260503003043 13 336 9.7 17.7 0.00 0.00 0.00 45 1012.8
20260503002941 13 346 4.8 14.5 0.00 0.00 0.00 46 1012.8
20260503002840 14 333 4.8 14.5 0.00 0.00 0.00 45 1012.5
20260503002738 14 352 8.0 14.5 0.00 0.00 0.00 45 1012.5
20260503002639 14 332 8.0 14.5 0.00 0.00 0.00 44 1012.5
20260503002539 14 346 8.0 14.5 0.00 0.00 0.00 46 1012.5
20260503002438 14 339 6.4 14.5 0.00 0.00 0.00 45 1012.5
20260503002336 14 340 4.8 14.5 0.00 0.00 0.00 45 1012.5
20260503002234 14 347 8.0 17.7 0.00 0.00 0.00 45 1012.5
20260503002156 14 330 8.0 17.7 0.00 0.00 0.00 45 1012.5
20260503002035 14 340 9.7 17.7 0.00 0.00 0.00 45 1012.5
20260503001953 14 326 6.4 17.7 0.00 0.00 0.00 44 1012.5
20260503001855 14 328 9.7 17.7 0.00 0.00 0.00 44 1012.5
20260503001733 14 332 8.0 17.7 0.00 0.00 0.00 44 1012.5
20260503001704 14 330 8.0 19.3 0.00 0.00 0.00 44 1012.5
20260503001522 14 347 9.7 19.3 0.00 0.00 0.00 44 1012.5
20260503001425 14 332 12.9 20.9 0.00 0.00 0.00 44 1012.5
20260503001343 14 339 9.7 20.9 0.00 0.00 0.00 43 1012.4
20260503001240 14 318 12.9 20.9 0.00 0.00 0.00 45 1012.4
20260503001159 14 330 6.4 20.9 0.00 0.00 0.00 43 1012.4
20260503001040 14 335 9.7 20.9 0.00 0.00 0.00 42 1012.4
20260503000937 14 340 12.9 20.9 0.00 0.00 0.00 43 1012.4
20260503000836 14 336 12.9 22.5 0.00 0.00 0.00 43 1012.4
20260503000733 14 323 8.0 22.5 0.00 0.00 0.00 43 1012.4
20260503000632 14 325 11.3 22.5 0.00 0.00 0.00 42 1012.4
20260503000530 14 316 11.3 22.5 0.00 0.00 0.00 42 1012.4
20260503000449 14 359 11.3 22.5 0.00 0.00 0.00 44 1012.4
20260503000347 14 322 16.1 22.5 0.00 0.00 0.00 44 1012.4
20260503000240 15 312 11.3 22.5 0.00 0.00 0.00 43 1012.4
20260503000149 15 332 4.8 22.5 0.00 0.00 0.00 44 1012.4
20260503000026 15 336 12.9 22.5 0.00 0.00 0.00 44 1012.4
20260502235944 15 315 16.1 22.5 0.00 0.00 0.00 44 1012.4
20260502235902 15 332 9.7 17.7 0.00 0.00 0.00 42 1012.3
20260502235740 15 330 8.0 17.7 0.00 0.00 0.00 42 1012.3
20260502235638 15 323 11.3 20.9 0.00 0.00 0.00 43 1012.3
20260502235538 15 330 11.3 20.9 0.00 0.00 0.00 43 1012.3
20260502235440 15 333 11.3 20.9 0.00 0.00 0.00 42 1012.3
20260502235339 15 325 11.3 22.5 0.00 0.00 0.00 42 1012.3
20260502235238 15 339 8.0 22.5 0.00 0.00 0.00 44 1012.3
20260502235158 15 330 6.4 22.5 0.00 0.00 0.00 42 1012.3
20260502235035 15 305 8.0 22.5 0.00 0.00 0.00 42 1012.3
20260502234934 15 325 8.0 22.5 0.00 0.00 0.00 42 1012.3
20260502234832 15 322 11.3 22.5 0.00 0.00 0.00 42 1012.3
20260502234734 15 339 11.3 30.6 0.00 0.00 0.00 43 1012.3
20260502234703 15 330 9.7 30.6 0.00 0.00 0.00 41 1012.3
20260502234539 15 332 14.5 30.6 0.00 0.00 0.00 41 1012.3
20260502234438 15 313 12.9 30.6 0.00 0.00 0.00 41 1012.3
20260502234334 15 339 8.0 30.6 0.00 0.00 0.00 41 1012.1
20260502234234 15 336 14.5 30.6 0.00 0.00 0.00 42 1012.1
20260502234133 15 325 12.9 30.6 0.00 0.00 0.00 42 1012.1
20260502234051 15 336 11.3 30.6 0.00 0.00 0.00 42 1012.1
20260502233927 15 325 14.5 30.6 0.00 0.00 0.00 42 1012.1
20260502233827 15 332 16.1 30.6 0.00 0.00 0.00 44 1012.1
20260502233725 15 332 12.9 25.7 0.00 0.00 0.00 42 1012.1
20260502233624 15 309 11.3 19.3 0.00 0.00 0.00 43 1012.1
20260502233543 15 312 11.3 19.3 0.00 0.00 0.00 43 1012.1
20260502233501 15 333 8.0 19.3 0.00 0.00 0.00 41 1012.1
20260502233336 15 325 11.3 19.3 0.00 0.00 0.00 42 1012.1
20260502233255 15 326 9.7 19.3 0.00 0.00 0.00 41 1012.1
20260502233204 15 328 8.0 19.3 0.00 0.00 0.00 42 1012.1
20260502233101 15 332 8.0 19.3 0.00 0.00 0.00 40 1012.1
20260502232943 15 332 8.0 19.3 0.00 0.00 0.00 41 1012.1
20260502232841 15 329 9.7 19.3 0.00 0.00 0.00 41 1012.0
20260502232741 15 325 12.9 19.3 0.00 0.00 0.00 41 1012.0
20260502232640 15 335 14.5 17.7 0.00 0.00 0.00 41 1012.0
20260502232558 15 333 11.3 19.3 0.00 0.00 0.00 42 1012.0
20260502232456 15 347 8.0 22.5 0.00 0.00 0.00 41 1012.0
20260502232336 15 322 6.4 22.5 0.00 0.00 0.00 41 1012.0
20260502232255 15 329 8.0 22.5 0.00 0.00 0.00 43 1012.0
20260502232157 15 333 4.8 22.5 0.00 0.00 0.00 40 1012.0
20260502232035 15 320 8.0 25.7 0.00 0.00 0.00 40 1012.0
20260502231935 15 323 3.2 25.7 0.00 0.00 0.00 40 1012.0
20260502231832 15 326 8.0 25.7 0.00 0.00 0.00 41 1012.0
20260502231802 15 333 12.9 25.7 0.00 0.00 0.00 39 1012.0
20260502231649 15 322 14.5 25.7 0.00 0.00 0.00 40 1012.0
20260502231527 15 330 16.1 25.7 0.00 0.00 0.00 41 1012.0
20260502231426 15 322 11.3 25.7 0.00 0.00 0.00 39 1012.0
20260502231328 15 326 11.3 25.7 0.00 0.00 0.00 39 1012.0
20260502231226 15 291 12.9 25.7 0.00 0.00 0.00 38 1012.0
20260502231126 15 332 14.5 25.7 0.00 0.00 0.00 39 1012.0
20260502231043 15 330 8.0 25.7 0.00 0.00 0.00 39 1012.0
20260502230941 15 323 8.0 25.7 0.00 0.00 0.00 38 1012.0
20260502230859 15 306 12.9 25.7 0.00 0.00 0.00 39 1012.0
20260502230735 15 313 11.3 25.7 0.00 0.00 0.00 41 1012.0
20260502230638 15 330 11.3 25.7 0.00 0.00 0.00 40 1012.0
20260502230537 15 322 9.7 25.7 0.00 0.00 0.00 42 1012.0
20260502230436 15 336 14.5 25.7 0.00 0.00 0.00 42 1012.0
20260502230333 15 318 9.7 22.5 0.00 0.00 0.00 40 1012.0
20260502230243 15 316 9.7 22.5 0.00 0.00 0.00 40 1012.0
20260502230152 16 328 11.3 22.5 0.00 0.00 0.00 42 1012.0
20260502230029 16 329 8.0 19.3 0.00 0.00 0.00 41 1012.0
20260502225931 16 344 8.0 19.3 0.00 0.00 0.00 41 1012.0
20260502225830 16 342 6.4 19.3 0.00 0.00 0.00 42 1011.9
20260502225729 16 339 3.2 19.3 0.00 0.00 0.00 41 1011.9
20260502225647 16 330 11.3 19.3 0.00 0.00 0.00 41 1011.9
20260502225524 16 343 4.8 19.3 0.00 0.00 0.00 41 1011.9
20260502225442 16 325 6.4 19.3 0.00 0.00 0.00 42 1011.9
20260502225341 16 325 8.0 19.3 0.00 0.00 0.00 42 1011.9
20260502225141 16 325 12.9 19.3 0.00 0.00 0.00 41 1011.9
20260502225040 16 326 9.7 16.1 0.00 0.00 0.00 41 1011.9
20260502224958 16 349 8.0 16.1 0.00 0.00 0.00 41 1011.9
20260502224919 16 319 8.0 16.1 0.00 0.00 0.00 40 1011.9
20260502224817 16 332 4.8 16.1 0.00 0.00 0.00 40 1011.9
20260502224724 16 325 3.2 16.1 0.00 0.00 0.00 41 1011.9
20260502224540 16 354 3.2 20.9 0.00 0.00 0.00 40 1011.9
20260502224438 16 352 8.0 20.9 0.00 0.00 0.00 40 1011.9
20260502224337 16 24 6.4 20.9 0.00 0.00 0.00 40 1011.8
20260502224239 16 340 1.6 20.9 0.00 0.00 0.00 40 1011.8
20260502224157 16 335 6.4 20.9 0.00 0.00 0.00 39 1011.8
20260502224035 16 347 8.0 20.9 0.00 0.00 0.00 39 1011.8
20260502223932 16 353 9.7 20.9 0.00 0.00 0.00 40 1011.8
20260502223832 16 340 12.9 20.9 0.00 0.00 0.00 40 1011.8
20260502223729 16 328 12.9 20.9 0.00 0.00 0.00 41 1011.8
20260502223628 16 343 9.7 20.9 0.00 0.00 0.00 42 1011.8
20260502223548 16 335 8.0 20.9 0.00 0.00 0.00 40 1011.8
20260502223429 16 305 12.9 20.9 0.00 0.00 0.00 39 1011.8
20260502223329 16 330 11.3 20.9 0.00 0.00 0.00 40 1011.8
20260502223239 16 323 12.9 20.9 0.00 0.00 0.00 40 1011.8
20260502223149 16 333 17.7 20.9 0.00 0.00 0.00 39 1011.8
20260502223028 16 344 6.4 20.9 0.00 0.00 0.00 40 1011.8
20260502222926 16 330 14.5 20.9 0.00 0.00 0.00 40 1011.8
20260502222824 16 113 8.0 20.9 0.00 0.00 0.00 40 1011.9
20260502222727 15 337 9.7 20.9 0.00 0.00 0.00 40 1011.9
20260502222645 15 346 4.8 20.9 0.00 0.00 0.00 40 1011.9
20260502222543 15 353 3.2 20.9 0.00 0.00 0.00 40 1011.9
20260502222440 15 326 6.4 20.9 0.00 0.00 0.00 38 1011.9
20260502222356 15 335 8.0 20.9 0.00 0.00 0.00 39 1011.9
20260502222253 15 353 8.0 20.9 0.00 0.00 0.00 39 1011.9
20260502222130 15 360 8.0 17.7 0.00 0.00 0.00 38 1011.9
20260502222028 15 360 11.3 17.7 0.00 0.00 0.00 38 1011.9
20260502221925 15 329 14.5 17.7 0.00 0.00 0.00 41 1011.9
20260502221827 15 332 4.8 16.1 0.00 0.00 0.00 39 1011.9
20260502221726 15 342 6.4 16.1 0.00 0.00 0.00 39 1011.9
20260502221655 15 44 6.4 17.7 0.00 0.00 0.00 39 1011.9
20260502221534 15 326 6.4 19.3 0.00 0.00 0.00 38 1011.9
20260502221433 15 330 6.4 19.3 0.00 0.00 0.00 40 1011.9
20260502221331 15 333 1.6 19.3 0.00 0.00 0.00 38 1011.8
20260502221229 15 329 1.6 19.3 0.00 0.00 0.00 38 1011.8
20260502221130 15 349 9.7 19.3 0.00 0.00 0.00 40 1011.8
20260502221028 15 329 9.7 19.3 0.00 0.00 0.00 41 1011.8
20260502220947 15 330 6.4 19.3 0.00 0.00 0.00 41 1011.8
20260502220825 15 332 8.0 19.3 0.00 0.00 0.00 40 1011.8
20260502220743 15 335 12.9 19.3 0.00 0.00 0.00 39 1011.8
20260502220642 15 326 12.9 19.3 0.00 0.00 0.00 40 1011.8
20260502220541 15 326 8.0 19.3 0.00 0.00 0.00 39 1011.8
20260502220424 15 328 14.5 19.3 0.00 0.00 0.00 38 1011.8
20260502220343 15 330 17.7 19.3 0.00 0.00 0.00 41 1011.8
20260502220241 15 335 12.9 17.7 0.00 0.00 0.00 39 1011.8
20260502220150 15 325 6.4 17.7 0.00 0.00 0.00 40 1011.8
20260502220026 15 315 9.7 19.3 0.00 0.00 0.00 39 1011.8
20260502215945 15 328 8.0 19.3 0.00 0.00 0.00 39 1011.8
20260502215842 15 325 9.7 19.3 0.00 0.00 0.00 41 1011.8
20260502215740 15 318 8.0 19.3 0.00 0.00 0.00 40 1011.8
20260502215658 15 320 6.4 19.3 0.00 0.00 0.00 41 1011.8
20260502215539 15 326 6.4 19.3 0.00 0.00 0.00 42 1011.8
20260502215437 15 319 3.2 19.3 0.00 0.00 0.00 41 1011.8
20260502215335 15 301 8.0 19.3 0.00 0.00 0.00 39 1011.8
20260502215234 15 343 16.1 19.3 0.00 0.00 0.00 39 1011.8
20260502215135 15 335 9.7 19.3 0.00 0.00 0.00 39 1011.8
20260502215034 15 333 11.3 20.9 0.00 0.00 0.00 39 1011.8
20260502214936 15 340 12.9 20.9 0.00 0.00 0.00 38 1011.8
20260502214834 15 329 14.5 20.9 0.00 0.00 0.00 40 1011.8
20260502214742 15 305 11.3 20.9 0.00 0.00 0.00 39 1011.8
20260502214650 15 332 9.7 20.9 0.00 0.00 0.00 39 1011.8
20260502214528 15 330 8.0 20.9 0.00 0.00 0.00 39 1011.8
20260502214426 15 337 11.3 20.9 0.00 0.00 0.00 39 1011.8
20260502214324 15 332 12.9 20.9 0.00 0.00 0.00 38 1011.5
20260502214226 15 332 14.5 20.9 0.00 0.00 0.00 38 1011.5
20260502214144 16 72 14.5 20.9 0.00 0.00 0.00 38 1011.5
20260502214103 16 354 12.9 20.9 0.00 0.00 0.00 38 1011.5
20260502213940 16 328 11.3 20.9 0.00 0.00 0.00 38 1011.5
20260502213839 16 342 11.3 20.9 0.00 0.00 0.00 39 1011.5
20260502213758 16 332 8.0 20.9 0.00 0.00 0.00 38 1011.5
20260502213635 16 349 12.9 20.9 0.00 0.00 0.00 40 1011.5
20260502213533 16 349 12.9 20.9 0.00 0.00 0.00 40 1011.5
20260502213436 16 343 14.5 20.9 0.00 0.00 0.00 41 1011.5
20260502213355 16 339 11.3 20.9 0.00 0.00 0.00 40 1011.5
20260502213232 16 330 11.3 22.5 0.00 0.00 0.00 40 1011.5
20260502213202 16 342 6.4 22.5 0.00 0.00 0.00 40 1011.5
20260502213038 16 326 6.4 22.5 0.00 0.00 0.00 40 1011.5
20260502212937 16 313 8.0 22.5 0.00 0.00 0.00 40 1011.5
20260502212835 16 329 6.4 22.5 0.00 0.00 0.00 40 1011.7
20260502212734 16 328 8.0 27.4 0.00 0.00 0.00 39 1011.7
20260502212637 16 288 9.7 27.4 0.00 0.00 0.00 40 1011.7
20260502212539 16 323 8.0 27.4 0.00 0.00 0.00 39 1011.7
20260502212437 16 332 12.9 27.4 0.00 0.00 0.00 40 1011.7
20260502212339 16 329 11.3 27.4 0.00 0.00 0.00 40 1011.7
20260502212237 16 320 8.0 27.4 0.00 0.00 0.00 40 1011.7
20260502212134 16 328 12.9 27.4 0.00 0.00 0.00 39 1011.7
20260502212032 16 340 8.0 27.4 0.00 0.00 0.00 38 1011.7
20260502211933 16 336 17.7 27.4 0.00 0.00 0.00 38 1011.7
20260502211833 16 344 11.3 22.5 0.00 0.00 0.00 40 1011.7
20260502211730 16 342 16.1 20.9 0.00 0.00 0.00 39 1011.7
20260502211700 16 339 8.0 20.9 0.00 0.00 0.00 40 1011.7
20260502211537 15 333 4.8 22.5 0.00 0.00 0.00 38 1011.7
20260502211438 15 328 11.3 22.5 0.00 0.00 0.00 38 1011.7
20260502211336 15 347 12.9 27.4 0.00 0.00 0.00 39 1011.8
20260502211239 15 332 6.4 27.4 0.00 0.00 0.00 40 1011.8
20260502211137 15 330 8.0 27.4 0.00 0.00 0.00 39 1011.8
20260502211034 15 322 12.9 27.4 0.00 0.00 0.00 41 1011.8
20260502210932 15 333 12.9 27.4 0.00 0.00 0.00 39 1011.8
20260502210830 15 323 12.9 27.4 0.00 0.00 0.00 38 1011.8
20260502210728 15 318 16.1 27.4 0.00 0.00 0.00 39 1011.8
20260502210631 15 305 14.5 27.4 0.00 0.00 0.00 40 1011.8
20260502210534 15 337 11.3 27.4 0.00 0.00 0.00 41 1011.8
20260502210431 15 357 11.3 27.4 0.00 0.00 0.00 41 1011.8
20260502210349 15 328 8.0 27.4 0.00 0.00 0.00 42 1011.8
20260502210246 15 335 14.5 27.4 0.00 0.00 0.00 42 1011.8
20260502210217 15 335 12.9 27.4 0.00 0.00 0.00 42 1011.8
20260502210052 15 336 8.0 27.4 0.00 0.00 0.00 40 1011.8
20260502205930 15 322 11.3 27.4 0.00 0.00 0.00 39 1011.8
20260502205827 15 335 9.7 27.4 0.00 0.00 0.00 39 1011.8
20260502205730 15 332 16.1 27.4 0.00 0.00 0.00 41 1011.8
20260502205628 15 330 8.0 20.9 0.00 0.00 0.00 39 1011.8
20260502205526 15 347 6.4 20.9 0.00 0.00 0.00 39 1011.8